[[{"header":{"parameterUnit":"m.s-1","parameterCategory":1,"la1":30.2991,"la2":30.254,"lo1":-89.0895,"lo2":-89.0444,"dy":0.0017,"dx":0.0017,"nx":28,"ny":28,"refTime":"2025-08-30T03:00:00:Z","depth":0,"parameterNumber":2,"parameterNumberName":"U-component_of_WINDS"},"data":[0,0,0,0,0,0,0,0,0,0,0,0,0,0,0,0,0,0,0,0,0,0,0,0,0,0,0,0,0,0,0,0,0,0,0,0,0,0,0,0,0,0,0,0,0,0,0,0,0,0,0,0,0,0,0,0,0,0,2.352,2.3521,0,2.3636,2.3638,2.3639,2.3635,2.3634,2.3632,2.3631,2.3753,2.3758,2.3762,0,0,0,0,0,0,0,0,0,0,0,0,0,2.3297,2.3301,2.352,2.3521,2.3523,2.3636,2.3638,2.3639,2.3636,2.3634,2.3632,2.363,2.3752,2.3757,2.3763,0,0,0,0,0,0,0,0,0,0,0,0,0,2.3402,2.3303,2.3519,2.3534,2.3537,2.3636,2.3638,2.364,2.3636,2.3634,2.3631,2.3629,2.375,2.3757,2.3764,2.3856,0,0,2.3786,2.3789,0,0,0,0,0,0,0,0,2.3396,2.341,2.3531,2.3533,2.3536,2.3619,2.3604,2.3713,2.3637,2.3599,2.3631,2.3628,2.3711,2.3721,2.3748,2.3862,2.3867,2.3786,2.3791,2.3794,2.3796,0,0,0,0,0,0,0,2.3389,2.3405,2.3566,2.3532,2.3536,2.3536,2.3549,2.3625,2.3667,2.3602,2.3602,2.3615,2.3712,2.3741,2.3751,2.3869,2.3786,2.3792,2.3797,2.38,2.4068,2.4071,0,0,0,0,0,0,2.3378,2.3399,2.3562,2.3569,2.3459,2.3542,2.3556,2.3595,2.3666,2.3674,2.3617,2.3615,2.373,2.3743,2.3755,2.387,2.3794,2.38,2.3804,2.4065,2.4069,2.4072,0,0,0,0,0,0,2.3373,2.3392,2.3557,2.3484,2.3505,2.3549,2.3593,2.3598,2.3628,2.3678,2.3686,2.364,2.3729,2.3745,2.3832,2.3874,2.3803,2.381,2.4062,2.4066,2.407,2.41,0,0,0,0,0,0,2.3367,2.3391,2.3425,2.3485,2.3509,2.3631,2.3595,2.3603,2.364,2.3638,2.3701,2.3709,2.3728,2.3821,2.3839,2.3883,2.3816,2.4058,2.4064,2.4069,2.4095,2.4105,2.4113,0,0,0,0,0,2.3359,2.3429,2.3427,2.3447,2.3553,2.3633,2.3647,2.3667,2.3643,2.3679,2.3712,2.3707,2.3867,2.383,2.385,2.3897,2.4056,2.4062,2.4068,2.4091,2.4103,2.4112,0,0,0,0,0,0,2.3374,2.3437,2.3436,2.3527,2.3575,2.3632,2.3678,2.3678,2.3734,2.373,2.3753,2.3768,2.3855,2.3884,2.3842,2.3992,2.3958,2.3969,2.3969,2.398,2.3989,2.398,2.3822,0,0,0,0,0,2.3388,2.3446,2.3499,2.3575,2.3599,2.3635,2.367,2.3681,2.3732,2.3752,2.3791,2.3841,2.3903,2.3943,2.4002,2.4099,2.4114,2.4142,2.415,2.4157,2.4167,2.4222,2.4236,2.4093,2.4093,2.4092,0,0,2.3418,2.3459,2.3495,2.3579,2.3617,2.3679,2.3651,2.3717,2.3764,2.3763,2.3847,2.3877,2.3935,2.4027,2.407,2.4055,2.4209,2.4165,2.417,2.4176,2.423,2.4244,2.4256,2.4097,2.4096,2.4096,0,0,2.3503,2.354,2.3608,2.3647,2.3705,2.3729,2.3745,2.3803,2.3823,2.3908,2.3909,2.3965,2.407,2.4112,2.4147,2.425,2.4248,2.4269,2.4314,2.4368,2.438,2.439,2.4428,2.4442,2.4278,2.4278,2.4278,0,2.3533,2.3625,2.3643,2.371,2.3748,2.3749,2.3819,2.3856,2.3931,2.3958,2.394,2.4073,2.4112,2.4215,2.4241,2.4268,2.4289,2.4262,2.4376,2.4387,2.4396,2.4434,2.4448,2.428,2.428,2.4279,2.4279,0,2.3659,2.3723,2.3771,2.3843,2.3886,2.3954,2.3985,2.4027,2.4035,2.4061,2.4148,2.4195,2.4265,2.429,2.4298,2.4395,2.4384,2.4371,2.4338,2.4412,2.4447,2.4462,2.4283,2.4282,2.4282,2.4281,0,0,2.3758,2.384,2.3857,2.3891,2.3955,2.4006,2.4075,2.4142,2.4179,2.423,2.429,2.438,2.4368,2.4408,2.4421,2.4469,2.455,2.445,2.4452,2.4468,2.4662,2.4673,2.4689,2.4549,2.4552,2.4554,2.4658,0,2.3852,2.3973,2.3992,2.4099,2.416,2.4162,2.4223,2.427,2.4296,2.4353,2.4382,2.4446,2.4425,2.4449,2.4496,2.453,2.4589,2.4523,2.4607,2.4609,2.4593,2.4707,2.4718,2.4814,2.4672,2.4674,2.4676,0,2.3977,2.4032,2.4145,2.4203,2.4229,2.4283,2.4347,2.44,2.4454,2.447,2.4516,2.4524,2.4597,2.4561,2.4664,2.4618,2.4654,2.4676,2.468,2.4689,2.4648,2.4721,2.4845,2.486,2.4697,2.4696,2.4694,0,2.404,2.4142,2.4223,2.4251,2.432,2.4359,2.4389,2.4441,2.4481,2.4538,2.4565,2.4629,2.4665,2.4716,2.4743,2.4713,2.4845,2.481,2.4862,2.4861,2.489,2.4888,2.5023,2.4911,2.4911,2.491,2.491,0,2.4143,2.4213,2.4252,2.4303,2.4381,2.4403,2.4481,2.4511,2.4558,2.4615,2.4621,2.4675,2.4706,2.4765,2.4786,2.487,2.4885,2.4902,2.4907,2.4902,2.49,2.4927,2.4921,2.4914,2.4913,2.4913,2.4912,0,2.4227,2.4256,2.4345,2.4403,2.442,2.4475,2.4526,2.4576,2.4602,2.4675,2.4693,2.4735,2.4805,2.4836,2.4923,2.4937,2.5033,2.5032,2.5014,2.5016,2.5067,2.5063,2.5225,2.5248,2.5119,2.512,2.5121,0,2.4291,2.4345,2.4409,2.4447,2.4479,2.4541,2.4582,2.4606,2.4649,2.4716,2.4758,2.4828,2.4885,2.4997,2.5037,2.5104,2.5106,2.5158,2.5116,2.511,2.5109,2.5106,2.5112,2.5166,2.5167,2.5168,2.5169,0,2.4404,2.4416,2.4474,2.4537,2.4586,2.4637,2.4688,2.4719,2.4752,2.48,2.4871,2.4916,2.5004,2.5074,2.5144,2.5177,2.518,2.5182,2.5198,2.5194,2.5182,2.5191,2.5037,2.5178,2.5178,2.5177,2.5176,2.5176,2.4482,2.453,2.4583,2.4647,2.4688,2.4735,2.4785,2.4818,2.4877,2.495,2.4962,2.5038,2.5093,2.5187,2.5223,2.5285,2.5272,2.5295,2.5301,2.5306,2.531,2.5171,2.5297,2.5297,2.5297,2.5297,2.5297,0,2.4596,2.463,2.4689,2.4759,2.4811,2.4807,2.4863,2.4907,2.4974,2.5024,2.5081,2.5164,2.5232,2.5277,2.5347,2.5388,2.5391,2.5406,2.5404,2.5412,2.5317,2.5297,2.5402,2.5402,2.5402,2.5402,2.5402,2.5402,2.4661,2.4743,2.4762,2.4865,2.4899,2.4973,2.5006,2.505,2.5091,2.5183,2.5239,2.5268,2.5317,2.539,2.5454,2.5465,2.5492,2.5507,2.5519,2.5429,2.5418,2.5408,2.5389,2.5512,2.5513,2.5609,2.561,2.561]},{"header":{"parameterUnit":"m.s-1","parameterCategory":1,"la1":30.2991,"la2":30.254,"lo1":-89.0895,"lo2":-89.0444,"dy":0.0017,"dx":0.0017,"nx":28,"ny":28,"refTime":"2025-08-30T03:00:00:Z","depth":0,"parameterNumber":3,"parameterNumberName":"V-component_of_WINDS"},"data":[0,0,0,0,0,0,0,0,0,0,0,0,0,0,0,0,0,0,0,0,0,0,0,0,0,0,0,0,0,0,0,0,0,0,0,0,0,0,0,0,0,0,0,0,0,0,0,0,0,0,0,0,0,0,0,0,0,0,-2.4885,-2.4885,0,-2.487,-2.4869,-2.4869,-2.485,-2.485,-2.485,-2.4849,-2.4834,-2.4834,-2.4833,0,0,0,0,0,0,0,0,0,0,0,0,0,-2.4896,-2.4896,-2.4885,-2.4885,-2.4884,-2.487,-2.4869,-2.4869,-2.485,-2.485,-2.485,-2.4849,-2.4834,-2.4834,-2.4833,0,0,0,0,0,0,0,0,0,0,0,0,0,-2.4887,-2.4896,-2.4885,-2.4873,-2.4872,-2.487,-2.4869,-2.4869,-2.485,-2.485,-2.4849,-2.4849,-2.4834,-2.4834,-2.4833,-2.4841,0,0,-2.4833,-2.4833,0,0,0,0,0,0,0,0,-2.4888,-2.4887,-2.4875,-2.4874,-2.4873,-2.4861,-2.4868,-2.486,-2.485,-2.4859,-2.4849,-2.4849,-2.4843,-2.4842,-2.484,-2.4841,-2.484,-2.4833,-2.4833,-2.4833,-2.4833,0,0,0,0,0,0,0,-2.4888,-2.4887,-2.4879,-2.4875,-2.4873,-2.4868,-2.4866,-2.4866,-2.4854,-2.4858,-2.4856,-2.4855,-2.4843,-2.4841,-2.484,-2.484,-2.4833,-2.4833,-2.4833,-2.4832,-2.4844,-2.4844,0,0,0,0,0,0,-2.4891,-2.4888,-2.4879,-2.4878,-2.4879,-2.4868,-2.4866,-2.4865,-2.4854,-2.4851,-2.4855,-2.4854,-2.4841,-2.484,-2.4839,-2.4846,-2.4833,-2.4832,-2.4832,-2.4843,-2.4844,-2.4844,0,0,0,0,0,0,-2.4891,-2.489,-2.488,-2.4883,-2.4881,-2.4869,-2.4868,-2.4865,-2.4863,-2.4852,-2.4849,-2.4856,-2.4841,-2.484,-2.4841,-2.4845,-2.4832,-2.4832,-2.4843,-2.4843,-2.4844,-2.4861,0,0,0,0,0,0,-2.4891,-2.489,-2.4894,-2.4883,-2.4881,-2.4882,-2.4868,-2.4865,-2.4863,-2.4861,-2.4851,-2.4849,-2.484,-2.4841,-2.484,-2.4845,-2.4832,-2.4842,-2.4843,-2.4844,-2.486,-2.4862,-2.4864,0,0,0,0,0,-2.4892,-2.49,-2.4894,-2.4893,-2.4885,-2.4882,-2.4881,-2.487,-2.4864,-2.4866,-2.4859,-2.485,-2.4845,-2.4841,-2.484,-2.4845,-2.4842,-2.4843,-2.4844,-2.4859,-2.4862,-2.4864,0,0,0,0,0,0,-2.4912,-2.4898,-2.4892,-2.4896,-2.489,-2.4879,-2.4882,-2.4874,-2.487,-2.4869,-2.4856,-2.4854,-2.4856,-2.4851,-2.4846,-2.4851,-2.4842,-2.4843,-2.4854,-2.4857,-2.4859,-2.4859,-2.4832,0,0,0,0,0,-2.4917,-2.4916,-2.4904,-2.4909,-2.4906,-2.4895,-2.4893,-2.4885,-2.4879,-2.4877,-2.4869,-2.4863,-2.486,-2.4858,-2.4855,-2.486,-2.4856,-2.4862,-2.4864,-2.4866,-2.4867,-2.4867,-2.4869,-2.4847,-2.4847,-2.4847,0,0,-2.4927,-2.4919,-2.4919,-2.4913,-2.4907,-2.4906,-2.4893,-2.4893,-2.4891,-2.4877,-2.4876,-2.4871,-2.4863,-2.4865,-2.4866,-2.4861,-2.4872,-2.4867,-2.4869,-2.4868,-2.4868,-2.487,-2.4872,-2.4848,-2.4848,-2.4847,0,0,-2.4944,-2.4939,-2.4941,-2.4936,-2.4928,-2.492,-2.4921,-2.491,-2.4905,-2.4905,-2.4893,-2.4892,-2.4887,-2.4882,-2.4878,-2.4892,-2.4883,-2.4891,-2.4902,-2.4902,-2.4904,-2.4905,-2.4909,-2.491,-2.4892,-2.4892,-2.4892,0,-2.4957,-2.4955,-2.4944,-2.4944,-2.494,-2.4927,-2.4929,-2.4924,-2.4915,-2.4913,-2.4908,-2.4901,-2.4895,-2.4895,-2.4898,-2.4896,-2.4896,-2.4892,-2.4905,-2.4906,-2.4907,-2.491,-2.4912,-2.4893,-2.4893,-2.4893,-2.4893,0,-2.4971,-2.497,-2.4973,-2.4964,-2.4961,-2.4962,-2.4951,-2.4949,-2.4941,-2.4934,-2.4933,-2.4925,-2.4919,-2.4919,-2.4912,-2.4917,-2.4914,-2.4907,-2.4898,-2.491,-2.4913,-2.4914,-2.4894,-2.4894,-2.4894,-2.4894,0,0,-2.5001,-2.4985,-2.4986,-2.4981,-2.497,-2.4969,-2.4969,-2.4963,-2.4961,-2.4955,-2.4954,-2.495,-2.4943,-2.4939,-2.4931,-2.4931,-2.4941,-2.4924,-2.4923,-2.4926,-2.4945,-2.4949,-2.4951,-2.4935,-2.4935,-2.4935,-2.4945,0,-2.5015,-2.5014,-2.5003,-2.5005,-2.5002,-2.4989,-2.4988,-2.4981,-2.4974,-2.4971,-2.4963,-2.4959,-2.4951,-2.4948,-2.4948,-2.494,-2.4944,-2.4939,-2.4933,-2.4933,-2.4934,-2.4953,-2.4958,-2.4967,-2.4946,-2.4946,-2.4946,0,-2.5032,-2.5026,-2.5027,-2.5015,-2.5013,-2.5013,-2.5006,-2.5003,-2.4995,-2.4989,-2.4984,-2.4975,-2.4973,-2.4965,-2.4962,-2.4958,-2.4955,-2.495,-2.4951,-2.4949,-2.494,-2.495,-2.497,-2.4971,-2.4948,-2.4948,-2.4948,0,-2.5051,-2.5044,-2.5043,-2.5039,-2.5026,-2.5026,-2.502,-2.5011,-2.5007,-2.5001,-2.4998,-2.4992,-2.4989,-2.4984,-2.4972,-2.4968,-2.497,-2.4961,-2.4964,-2.4965,-2.4965,-2.4965,-2.4983,-2.4965,-2.4965,-2.4965,-2.4965,0,-2.5067,-2.5068,-2.5051,-2.5051,-2.5051,-2.5038,-2.5039,-2.5032,-2.5024,-2.5021,-2.5009,-2.5007,-2.4993,-2.4989,-2.498,-2.4978,-2.4977,-2.4972,-2.4969,-2.4972,-2.4972,-2.4969,-2.4968,-2.4965,-2.4965,-2.4965,-2.4965,0,-2.5088,-2.5077,-2.5075,-2.5062,-2.5059,-2.5059,-2.5048,-2.5047,-2.5038,-2.5035,-2.5034,-2.502,-2.5015,-2.5003,-2.4995,-2.4989,-2.4988,-2.4985,-2.4991,-2.4989,-2.4993,-2.4992,-2.5009,-2.501,-2.4992,-2.4992,-2.4993,0,-2.5099,-2.5099,-2.5086,-2.5083,-2.5077,-2.5073,-2.5069,-2.5057,-2.5053,-2.5043,-2.5042,-2.5036,-2.503,-2.5021,-2.5011,-2.5004,-2.4999,-2.5006,-2.4998,-2.5001,-2.4998,-2.4998,-2.4997,-2.5007,-2.5007,-2.5008,-2.5008,0,-2.5118,-2.5112,-2.5107,-2.51,-2.5095,-2.5089,-2.5082,-2.508,-2.5066,-2.5062,-2.5056,-2.5052,-2.5042,-2.5036,-2.5027,-2.5021,-2.5011,-2.501,-2.501,-2.5013,-2.5016,-2.5013,-2.4994,-2.501,-2.501,-2.5009,-2.5009,-2.5009,-2.5133,-2.5132,-2.5122,-2.5116,-2.511,-2.5103,-2.5101,-2.5092,-2.5086,-2.5078,-2.5071,-2.5065,-2.5055,-2.5043,-2.5037,-2.5032,-2.5027,-2.5028,-2.5028,-2.5028,-2.5029,-2.5018,-2.503,-2.503,-2.503,-2.503,-2.503,0,-2.5151,-2.5143,-2.5138,-2.5128,-2.5123,-2.5115,-2.5107,-2.5103,-2.5098,-2.509,-2.5084,-2.5076,-2.507,-2.5058,-2.505,-2.5048,-2.5044,-2.5047,-2.5046,-2.5045,-2.5034,-2.5034,-2.505,-2.505,-2.505,-2.505,-2.505,-2.505,-2.5159,-2.5156,-2.5149,-2.5142,-2.5135,-2.5129,-2.5125,-2.5118,-2.5111,-2.5103,-2.5098,-2.509,-2.508,-2.5072,-2.5065,-2.5061,-2.5059,-2.5062,-2.5058,-2.5048,-2.5046,-2.5044,-2.5044,-2.5062,-2.5062,-2.5069,-2.5069,-2.5069]}]]